Theta_e
320 321 319 316 315 309 305 302 301 301 301 304 301 305 307 310 314 314 310 316 319 315 314 314 314 313 313 313 314 315 315 314 310 309 308 307 308 308
316 313 311 309 306 304 303 308 306 303 300 303 306 306 309 314 316 312 310 320 318 315 313 311 310 310 311 311 313 314 312 307 306 305 305 305 306 306
318 318 316 314 309 306 307 313 309 308 303 307 310 312 314 313 315 313 315 313 313 313 313 310 308 308 309 310 312 312 308 307 305 307 306 305 305 304
314 314 313 317 312 312 312 312 312 311 308 309 310 307 307 306 304 303 306 311 308 313 311 310 308 307 307 308 310 307 305 304 305 305 305 304 303 302
309 309 309 310 308 307 307 309 307 312 313 311 302 300 300 299 300 301 301 303 309 313 309 309 308 307 306 306 308 306 304 303 301 302 302 303 302 301
301 302 305 307 307 306 306 306 306 309 304 302 299 297 297 297 298 297 296 297 297 302 305 305 305 304 305 305 306 308 304 301 300 300 300 300 300 299
296 298 301 306 309 307 304 302 304 303 299 297 295 294 293 294 294 295 293 293 295 295 296 296 293 292 294 297 300 302 303 300 300 300 299 298 298 298
293 293 296 302 303 304 304 304 303 301 297 296 293 292 291 292 293 293 291 290 290 293 294 292 291 289 291 293 301 301 301 299 299 299 299 298 298 297
291 291 292 297 299 298 299 301 302 302 301 297 294 291 290 291 293 291 291 290 290 292 291 289 290 288 290 294 299 300 299 298 297 298 298 297 297 296
295 295 292 292 294 296 293 293 294 295 296 297 294 292 290 292 294 293 292 291 292 291 289 287 288 287 289 291 297 298 298 297 296 297 297 297 296 295
302 301 296 295 294 294 292 290 289 290 295 295 293 293 292 293 293 291 289 288 286 287 290 287 287 287 287 289 291 297 297 295 295 296 296 296 295 295
299 300 300 298 294 293 289 288 287 287 288 287 288 289 290 291 295 291 290 288 287 286 290 287 286 286 286 288 288 290 289 294 294 294 295 296 294 290
298 296 295 296 293 292 290 286 286 286 289 286 286 287 288 289 290 291 291 291 289 287 290 289 286 285 285 285 285 287 287 287 287 288 292 293 293 293
299 297 294 293 292 291 292 291 291 290 287 287 288 288 289 290 291 295 294 292 293 291 291 290 288 287 284 283 283 286 286 286 285 284 286 290 291 291
297 296 294 292 292 290 291 291 292 290 288 288 289 290 292 293 296 296 295 295 294 294 296 292 291 287 287 284 284 283 284 285 284 285 287 287 286 286
296 294 294 292 291 291 289 291 291 292 292 289 289 291 291 291 293 295 294 293 291 291 291 290 288 289 286 285 284 282 283 282 286 286 286 286 286 285
292 289 288 287 287 288 287 287 288 288 289 289 289 290 291 291 290 293 293 290 288 288 288 288 289 288 288 285 283 283 282 283 283 285 285 284 285 285
292 289 290 290 290 289 288 288 286 289 289 290 289 290 289 291 293 294 291 289 287 287 287 287 287 286 286 287 289 283 283 282 284 285 284 282 282 284
299 299 296 292 292 291 289 287 287 289 290 290 292 291 292 295 292 293 291 290 288 287 286 286 285 284 282 281 285 290 283 283 282 283 283 282 281 283
300 301 296 297 293 287 286 287 287 287 287 289 291 295 295 294 293 291 290 289 287 286 285 286 285 284 283 282 282 284 288 283 282 282 283 283 284 287
301 301 298 292 289 288 287 288 288 288 289 290 294 295 294 294 293 292 292 288 287 286 285 285 286 285 285 284 280 279 283 288 288 284 283 281 279 280
300 297 291 291 289 288 288 289 290 288 290 293 294 295 294 293 292 292 291 288 286 286 286 286 286 285 284 283 280 280 279 283 287 289 290 287 276 274
292 291 291 290 290 290 289 289 289 292 293 294 294 294 294 292 293 293 290 287 287 286 286 285 284 284 283 283 278 276 278 281 279 281 282 287 288 287
Wind_Speed
6 6 5 4 5 4 4 3 5 4 0 3 2 4 3 2 3 2 3 5 5 8 8 8 7 6 5 5 6 6 7 8 9 10 11 12 13 14
4 7 4 3 5 4 5 3 3 5 4 3 4 3 2 0 3 3 3 2 6 10 10 8 7 7 7 6 4 2 8 8 5 7 9 11 12 13
7 8 7 6 5 4 4 2 3 3 5 1 1 1 3 3 5 4 5 6 6 10 9 8 8 9 8 7 5 8 5 0 6 10 11 12 12 14
7 10 7 7 7 5 4 4 4 3 5 4 3 4 6 4 4 7 4 4 5 8 8 9 10 9 9 8 5 7 4 7 12 11 10 10 12 16
6 8 6 7 6 3 3 5 4 3 3 6 3 3 3 3 6 4 4 4 3 6 8 9 9 9 9 9 4 2 5 9 7 9 10 12 13 15
6 6 6 6 7 5 5 5 5 6 5 7 4 2 2 2 4 3 3 3 2 3 5 5 6 9 10 6 7 4 5 1 6 7 7 9 11 11
6 5 5 6 7 4 4 4 6 5 4 4 3 2 1 2 2 1 2 1 1 2 1 3 3 3 4 4 7 9 3 8 10 11 13 13 13 13
7 5 5 8 9 9 8 5 3 10 4 5 3 3 3 3 2 3 3 2 2 2 2 1 1 2 3 4 10 10 9 9 10 15 17 17 18 16
6 5 4 3 5 6 7 9 8 7 4 7 7 6 5 7 6 3 3 3 3 2 2 2 2 3 2 5 10 7 6 15 14 14 17 21 24 20
5 6 5 6 4 6 5 5 4 2 2 3 6 7 5 7 6 6 6 3 2 2 1 1 2 2 3 4 8 10 9 13 14 16 19 20 18 18
6 7 7 7 8 7 6 5 2 3 6 8 6 6 7 7 6 5 2 3 0 2 2 2 3 3 2 4 5 8 10 12 14 14 16 17 17 16
5 7 11 8 8 9 7 6 6 4 3 3 3 4 4 3 4 2 5 3 1 2 3 2 2 2 5 3 3 5 5 7 11 14 15 15 15 11
5 5 5 10 11 11 8 6 6 6 5 4 3 1 0 1 0 1 3 4 3 3 4 3 2 1 2 4 3 4 3 4 4 5 10 12 17 14
7 4 5 10 12 12 8 9 8 6 4 3 2 3 3 3 4 3 4 4 4 4 3 3 2 4 3 2 4 4 3 5 3 3 4 12 12 15
4 7 9 12 12 9 10 10 9 5 5 4 5 5 5 5 3 3 3 3 5 5 4 5 4 3 3 3 4 3 4 4 1 4 6 8 8 8
8 4 6 8 10 9 8 8 5 6 8 6 5 5 2 3 4 4 4 3 3 4 4 5 3 4 1 3 3 3 2 3 7 7 8 9 8 5
6 3 3 2 2 3 4 5 5 5 5 4 4 4 4 4 4 4 4 3 5 3 2 1 2 3 4 4 3 2 3 4 4 8 9 11 8 8
4 5 6 6 7 8 8 7 4 8 7 6 5 6 5 5 4 3 3 4 5 4 4 3 1 2 3 4 4 2 3 3 5 8 8 10 11 10
5 5 7 6 8 8 8 7 9 10 8 8 8 6 5 5 5 2 2 4 6 4 4 3 3 3 1 2 4 3 1 4 4 7 7 7 11 14
7 8 6 7 8 8 7 8 8 5 6 7 6 6 7 6 5 4 3 6 6 4 4 3 3 4 5 4 3 4 3 4 4 8 8 8 9 20
9 7 7 6 6 5 6 6 6 6 6 5 6 8 8 7 6 6 7 10 6 4 5 4 5 6 3 3 1 4 5 7 8 8 9 7 7 10
6 5 3 5 5 5 5 5 5 5 6 7 8 9 7 5 5 6 6 10 6 5 4 3 4 3 2 3 3 3 4 5 7 14 15 12 2 6
3 5 4 4 4 5 4 5 5 6 7 8 7 7 7 7 5 5 5 4 3 4 3 3 3 2 3 3 4 3 4 7 3 6 8 11 13 18
Wind_Direction
120 120 118 123 120 119 120 135 133 127 239 266 176 223 223 203 232 189 204 244 227 136 126 103 98 86 66 38 34 40 53 63 48 30 17 7 359 353
89 95 96 84 95 119 129 125 113 130 139 187 234 226 218 359 253 171 248 267 99 121 117 117 97 57 35 8 359 74 86 66 31 359 350 347 350 350
67 84 85 124 129 125 129 133 142 123 118 67 145 23 55 91 74 63 64 77 96 115 112 90 71 71 46 31 31 88 99 54 357 339 343 350 340 339
73 80 66 85 77 91 95 97 140 149 122 119 53 41 69 49 88 68 31 76 119 103 88 85 90 70 36 21 87 151 170 318 17 351 339 334 332 337
87 94 102 100 89 88 118 92 83 81 116 126 104 50 63 28 68 52 41 54 82 89 87 74 87 59 45 30 30 224 29 344 353 331 328 325 326 331
66 75 83 97 122 123 95 110 109 100 94 113 94 116 107 30 77 97 41 27 48 24 46 68 71 47 53 34 33 20 4 346 284 288 299 295 292 309
83 85 90 119 127 121 118 112 120 100 119 109 100 92 54 48 126 187 126 338 318 4 46 17 33 23 21 9 12 15 27 11 353 350 345 337 322 319
115 88 73 79 76 77 84 102 142 142 139 132 142 154 194 179 160 152 130 111 224 318 67 286 11 18 348 1 347 13 14 349 345 343 332 331 326 326
142 139 116 95 102 101 77 73 72 65 99 155 160 183 169 190 154 138 157 154 195 266 123 250 341 7 346 355 342 346 349 358 333 324 331 331 336 331
168 178 165 170 175 146 122 104 85 81 138 176 174 172 171 162 166 167 166 155 57 322 125 178 316 323 348 322 319 343 329 323 330 334 330 328 316 311
203 200 189 191 205 176 150 145 105 21 19 37 65 106 135 155 155 116 114 92 347 280 337 106 325 337 350 305 318 309 299 321 328 319 321 317 314 321
222 219 207 201 194 179 165 165 170 208 148 97 69 87 130 123 109 87 138 115 120 352 267 88 360 50 339 280 299 303 308 312 329 315 316 310 321 315
208 216 218 206 187 186 173 176 195 162 187 172 176 187 50 34 120 133 160 142 154 223 241 125 169 142 192 283 301 291 320 311 309 311 304 303 305 298
215 204 203 195 196 187 177 183 175 154 150 172 187 221 222 229 230 216 228 232 220 194 130 165 208 172 176 281 279 322 317 304 310 294 291 305 288 288
202 207 196 199 191 185 191 188 179 180 180 181 208 219 205 212 184 214 209 266 287 269 236 204 186 174 164 208 261 284 317 305 317 310 311 298 295 308
181 164 187 182 191 191 176 200 194 186 191 196 204 213 189 192 211 180 172 175 241 260 243 186 178 166 166 222 206 287 314 319 313 315 310 294 303 292
139 137 177 144 187 212 225 215 200 186 194 187 183 203 221 203 189 150 167 168 210 218 227 272 60 134 179 190 297 296 280 284 284 313 321 308 313 310
176 185 209 206 207 206 212 219 206 209 211 196 191 203 209 188 166 171 165 176 213 210 192 189 180 39 359 316 196 236 279 263 303 320 302 304 312 317
232 215 238 219 227 226 212 206 215 215 209 211 215 206 168 155 160 154 190 215 233 198 198 169 160 131 102 268 287 180 250 296 306 310 297 302 305 308
230 220 199 218 218 207 206 211 220 205 205 216 209 174 169 159 165 176 216 240 217 183 196 170 171 157 168 200 230 267 270 284 293 294 296 302 279 289
237 240 221 206 201 205 213 216 218 217 211 198 190 180 178 175 184 180 204 246 198 182 198 188 197 162 150 107 51 284 285 260 272 284 299 306 307 309
222 242 202 196 199 202 205 206 209 206 209 200 199 193 185 175 169 175 228 234 205 192 183 160 133 133 152 164 231 235 277 290 283 278 281 271 239 294
222 222 213 209 207 218 211 211 207 212 207 204 193 183 164 183 191 194 243 254 209 177 160 179 115 189 189 194 195 253 275 297 281 304 299 283 263 277